Location: Newark
(43.9494°N, 6.8108°E)
Time: 04:11:03
(UTC+00:00)

A-11 Canister half - Visible Passes

Search period start: 19 October 2019 00:00
Search period end: 29 October 2019 00:00
Orbit: 1514 x 1686 km, 47.2° (Epoch: 18 October)

Date Brightness Start Highest point End Pass type
(mag) Time Alt. Az. Time Alt. Az. Time Alt. Az.
19 Oct 10.9 00:20:27 16° E 00:20:27 16° E 00:22:15 10° ENE visible
19 Oct 9.0 02:18:39 74° SE 02:18:39 74° SE 02:27:50 10° ENE visible
19 Oct 9.1 04:16:51 24° W 04:23:29 74° N 04:32:58 10° E visible
19 Oct 11.2 23:58:52 11° E 23:58:52 11° E 23:59:12 10° ENE visible
20 Oct 9.3 01:57:04 61° E 01:57:04 61° E 02:04:55 10° ENE visible
20 Oct 9.0 03:55:16 32° W 04:00:31 75° N 04:10:02 10° E visible
21 Oct 9.6 01:35:27 48° E 01:35:27 48° E 01:42:00 10° ENE visible
21 Oct 9.0 03:33:39 42° W 03:37:34 76° N 03:47:06 10° ENE visible
22 Oct 10.0 01:13:51 37° E 01:13:51 37° E 01:19:05 10° ENE visible
22 Oct 9.0 03:12:02 55° W 03:14:35 77° N 03:24:10 10° ENE visible
22 Oct 9.1 05:10:22 10° WNW 05:20:10 82° NNE 05:29:35 10° ESE visible
23 Oct 10.4 00:52:12 28° ENE 00:52:12 28° ENE 00:56:10 10° ENE visible
23 Oct 8.9 02:50:25 69° WNW 02:51:37 78° N 03:01:14 10° ENE visible
23 Oct 9.1 04:48:36 15° WNW 04:57:13 80° NNE 05:06:39 10° ESE visible
24 Oct 10.7 00:30:35 21° ENE 00:30:35 21° ENE 00:33:14 10° ENE visible
24 Oct 8.9 02:28:47 79° N 02:28:47 79° N 02:38:19 10° ENE visible
24 Oct 9.1 04:26:59 21° WNW 04:34:15 79° NNE 04:43:44 10° E visible
25 Oct 11.0 00:08:58 15° ENE 00:08:58 15° ENE 00:10:18 10° ENE visible
25 Oct 9.2 02:07:09 68° NE 02:07:09 68° NE 02:15:23 10° ENE visible
25 Oct 9.1 04:05:21 28° WNW 04:11:18 78° NNE 04:20:48 10° E visible
25 Oct 11.2 23:47:20 10° ENE 23:47:20 10° ENE 23:47:22 10° ENE visible
26 Oct 9.5 01:45:32 53° ENE 01:45:32 53° ENE 01:52:27 10° ENE visible
26 Oct 9.0 03:43:45 37° WNW 03:48:20 77° N 03:57:52 10° E visible
27 Oct 9.9 01:23:56 41° ENE 01:23:56 41° ENE 01:29:31 10° ENE visible
27 Oct 9.0 03:22:08 48° WNW 03:25:23 76° N 03:34:56 10° E visible
27 Oct 9.2 05:20:50 10° WNW 05:30:26 67° SSW 05:39:41 10° SE visible
28 Oct 10.3 01:02:21 31° ENE 01:02:21 31° ENE 01:06:36 10° ENE visible
28 Oct 9.0 03:00:34 62° NW 03:02:25 75° N 03:12:00 10° E visible
28 Oct 9.1 04:58:46 13° WNW 05:07:32 70° SSW 05:16:50 10° SE visible
